Powrót do katalogu

STARLINK-5846

AktywnyŁącznośćVLEO
NORAD 56492·PAYLOAD·🇺🇸 United States

Wystrzelony May 10, 2023 z Vandenberg Space Force Base

Loading…

Następne Przeloty (najbliższe 24 godziny)

TLE

ŚwieżeSource: CelesTrak SupGP

Epoka: Sep 14, 2026, 20:40 UTC

1 56492C 23064AW  26257.86159722 -.00049034  00000+0 -41099-2 0  2576
2 56492  70.0017 347.4616 0003322 272.9088 290.0560 14.98348979    15

Śledź STARLINK-5846 w czasie rzeczywistym z AllMySat

Download on the App Store